Location: Marcé
(47.5801°N, 0.3280°W)
Time: 19:35:04
(UTC+01:00)

Explorer 7 - Pass Details

Date: 05 December 2021
Orbit: 483 x 674 km, 50.3° (Epoch: 17 January)

Event Time Altitude Azimuth Distance (km) Brightness Sun altitude
Rises 11:16:06 0° 290° (WNW) 2,670 9.9 16.8°
Reaches altitude 10° 11:18:23 10° 287° (WNW) 1,750 9.1 16.9°
Maximum altitude 11:22:17 63° 207° (SSW) 562 7.5 17.1°
Drops below altitude 10° 11:26:01 10° 126° (SE) 1,675 10.4 17.4°
Sets 11:28:10 0° 123° (ESE) 2,543 11.1 17.5°
